Weather History for Fort Collins, CO

Change the Weather History Date:

Sunday, March 10, 2013

  Actual Average Record
Temperature  
Mean Temperature 38 °F -  
Max Temperature 50 °F 49 °F 69 °F (2011)
Min Temperature 26 °F 23 °F 10 °F (2009)
Degree Days  
Heating Degree Days 27    
Moisture  
Dew Point 19 °F    
Average Humidity 52    
Maximum Humidity 80    
Minimum Humidity 30    
Precipitation  
Precipitation 0.00 in - - ()
Sea Level Pressure  
Sea Level Pressure 30.07 in    
Wind  
Wind Speed 16 mph (NNW)    
Max Wind Speed 32 mph    
Max Gust Speed 38 mph    
Visibility 10 miles    
Events      
Averages and records for this station are not official NWS values.
T = Trace of Precipitation, MM = Missing Value Source: NWS Daily Summary

Daily Weather History Graph

Daily Weather History Graph

Search for Another Location

Airport:

Trip Planner

Search our weather history database for the weather conditions in past years. The results will help you decide how hot, cold, wet, or windy it might be!

Date:

Astronomy

Mar. 10, 2013 Rise Set
Actual Time 7:19 AM MDT 7:01 PM MDT
Civil Twilight 6:52 AM MDT 7:29 PM MDT
Nautical Twilight 6:20 AM MDT 8:00 PM MDT
Astronomical Twilight 5:48 AM MDT 8:32 PM MDT
Moon 6:20 AM MDT (3/10) 6:12 PM MDT (3/10)
Length of Visible Light 12h 36m
Length of Day
11h 42m
Waning Crescent, 1% of the Moon is Illuminated
Mar 10
Waning Crescent
Mar 11
New
Mar 19
First Quarter
Mar 27
Full
Apr 2
Last Quarter

Hourly Weather History & Observations

Time (MDT) Temp. Windchill Dew Point Humidity Pressure Visibility Wind Dir Wind Speed Gust Speed Precip Events Conditions
12:15 AM 26.6 °F 14.3 °F 15.8 °F 64% 30.07 in 10.0 mi NNW 16.1 mph 21.9 mph N/A   Partly Cloudy
12:35 AM 28.4 °F 17.5 °F 15.8 °F 59% 30.07 in 10.0 mi NNW 13.8 mph 21.9 mph N/A   Partly Cloudy
12:55 AM 28.4 °F 16.2 °F 15.8 °F 59% 30.09 in 10.0 mi NNW 17.3 mph - N/A   Partly Cloudy
1:15 AM 28.4 °F 16.6 °F 15.8 °F 59% 30.09 in 10.0 mi NNW 16.1 mph - N/A   Partly Cloudy
1:35 AM 28.4 °F 17.0 °F 15.8 °F 59% 30.09 in 10.0 mi NNW 15.0 mph - N/A   Clear
1:55 AM 28.4 °F 17.0 °F 15.8 °F 59% 30.09 in 10.0 mi NNW 15.0 mph 20.7 mph N/A   Clear
3:15 AM 28.4 °F 16.6 °F 15.8 °F 59% 30.08 in 10.0 mi NNW 16.1 mph - N/A   Clear
3:35 AM 28.4 °F 17.5 °F 17.6 °F 64% 30.08 in 10.0 mi NNW 13.8 mph - N/A   Clear
3:55 AM 26.6 °F 15.2 °F 15.8 °F 64% 30.08 in 10.0 mi NNW 13.8 mph - N/A   Clear
4:15 AM 26.6 °F 15.7 °F 15.8 °F 64% 30.09 in 10.0 mi NNW 12.7 mph - N/A   Scattered Clouds
4:35 AM 26.6 °F 13.8 °F 15.8 °F 64% 30.09 in 10.0 mi NNW 17.3 mph 21.9 mph N/A   Partly Cloudy
4:55 AM 28.4 °F 16.2 °F 15.8 °F 59% 30.09 in 10.0 mi North 17.3 mph - N/A   Partly Cloudy
5:15 AM 26.6 °F 15.2 °F 15.8 °F 64% 30.10 in 10.0 mi North 13.8 mph - N/A   Clear
6:35 AM 26.6 °F 15.2 °F 15.8 °F 64% 30.10 in 10.0 mi North 13.8 mph 20.7 mph N/A   Clear
6:55 AM 28.4 °F 19.7 °F 14.0 °F 55% 30.10 in 10.0 mi North 9.2 mph 18.4 mph N/A   Clear
7:15 AM 28.4 °F 15.4 °F 12.2 °F 51% 30.10 in 10.0 mi NNW 19.6 mph 26.5 mph N/A   Clear
7:35 AM 28.4 °F 17.0 °F 12.2 °F 51% 30.10 in 10.0 mi NNW 15.0 mph 24.2 mph N/A   Clear
8:15 AM 28.4 °F 17.0 °F 14.0 °F 55% 30.11 in 10.0 mi North 15.0 mph 19.6 mph N/A   Clear
8:35 AM 30.2 °F 20.8 °F 14.0 °F 51% 30.11 in 10.0 mi North 11.5 mph - N/A   Clear
8:55 AM 30.2 °F 20.2 °F 14.0 °F 51% 30.12 in 10.0 mi NNW 12.7 mph - N/A   Clear
9:15 AM 32.0 °F 21.6 °F 14.0 °F 48% 30.11 in 10.0 mi NNW 15.0 mph 20.7 mph N/A   Clear
9:35 AM 33.8 °F 22.2 °F 15.8 °F 48% 30.11 in 10.0 mi NNW 20.7 mph - N/A   Clear
9:55 AM 33.8 °F 21.9 °F 14.0 °F 44% 30.11 in 10.0 mi NNW 21.9 mph - N/A   Clear
10:15 AM 35.6 °F 24.8 °F 12.2 °F 38% 30.11 in 10.0 mi NNW 19.6 mph 26.5 mph N/A   Clear
10:35 AM 35.6 °F 25.2 °F 12.2 °F 38% 30.10 in 10.0 mi NNW 18.4 mph 27.6 mph N/A   Clear
10:55 AM 37.4 °F 27.2 °F 14.0 °F 38% 30.10 in 10.0 mi NNW 19.6 mph 24.2 mph N/A   Clear
11:15 AM 37.4 °F 28.2 °F 12.2 °F 36% 30.10 in 10.0 mi NNW 16.1 mph 25.3 mph N/A   Clear
11:35 AM 39.2 °F 30.2 °F 15.8 °F 39% 30.09 in 10.0 mi NNW 17.3 mph 27.6 mph N/A   Clear
11:55 AM 41.0 °F 31.9 °F 15.8 °F 36% 30.09 in 10.0 mi North 19.6 mph 23.0 mph N/A   Clear
12:15 PM 41.0 °F 30.9 °F 15.8 °F 36% 30.08 in 10.0 mi NNW 24.2 mph 32.2 mph N/A   Clear
12:35 PM 42.8 °F 34.0 °F 19.4 °F 39% 30.07 in 10.0 mi North 20.7 mph 34.5 mph N/A   Clear
12:55 PM 44.6 °F 35.7 °F 19.4 °F 37% 30.07 in 10.0 mi North 24.2 mph 32.2 mph N/A   Clear
1:15 PM - - - N/A% 30.06 in 10.0 mi North 32.2 mph 36.8 mph N/A   Clear
1:35 PM 46.4 °F 37.9 °F 21.2 °F 37% 30.06 in 10.0 mi North 25.3 mph 38.0 mph N/A   Clear
1:55 PM 46.4 °F 37.4 °F 21.2 °F 37% 30.06 in 10.0 mi North 28.8 mph 38.0 mph N/A   Clear
2:15 PM 46.4 °F 37.9 °F 19.4 °F 34% 30.05 in 10.0 mi North 25.3 mph 34.5 mph N/A   Clear
2:35 PM 46.4 °F 38.1 °F 19.4 °F 34% 30.04 in 10.0 mi North 24.2 mph 36.8 mph N/A   Clear
2:55 PM 46.4 °F 38.1 °F 19.4 °F 34% 30.05 in 10.0 mi North 24.2 mph 32.2 mph N/A   Clear
3:15 PM 48.2 °F - 21.2 °F 34% 30.05 in 10.0 mi North 25.3 mph 33.4 mph N/A   Clear
3:35 PM 46.4 °F 38.1 °F 19.4 °F 34% 30.06 in 10.0 mi North 24.2 mph 33.4 mph N/A   Clear
3:55 PM 46.4 °F 38.7 °F 19.4 °F 34% 30.06 in 10.0 mi North 20.7 mph - N/A   Clear
4:35 PM 50.0 °F - 21.2 °F 32% 30.05 in 10.0 mi North 21.9 mph 29.9 mph N/A   Clear
4:55 PM 48.2 °F - 21.2 °F 34% 30.06 in 10.0 mi NNW 18.4 mph 29.9 mph N/A   Clear
5:15 PM 48.2 °F - 21.2 °F 34% 30.06 in 10.0 mi NNW 13.8 mph 26.5 mph N/A   Clear
5:35 PM 48.2 °F - 19.4 °F 32% 30.05 in 10.0 mi North 21.9 mph 26.5 mph N/A   Clear
5:55 PM 48.2 °F - 19.4 °F 32% 30.05 in 10.0 mi North 17.3 mph 21.9 mph N/A   Mostly Cloudy
6:15 PM 48.2 °F - 17.6 °F 30% 30.05 in 10.0 mi North 19.6 mph 25.3 mph N/A   Scattered Clouds
6:35 PM 46.4 °F 39.5 °F 19.4 °F 34% 30.04 in 10.0 mi NNE 17.3 mph - N/A   Partly Cloudy
6:55 PM 46.4 °F 40.7 °F 19.4 °F 34% 30.04 in 10.0 mi NNE 12.7 mph - N/A   Mostly Cloudy
7:15 PM 44.6 °F 40.2 °F 19.4 °F 37% 30.05 in 10.0 mi North 8.1 mph - N/A   Mostly Cloudy
7:35 PM 39.2 °F 33.6 °F 24.8 °F 56% 30.06 in 10.0 mi SW 8.1 mph - N/A   Mostly Cloudy
8:15 PM 37.4 °F 34.9 °F 24.8 °F 60% 30.05 in 10.0 mi ESE 3.5 mph - N/A   Scattered Clouds
8:35 PM 35.6 °F 29.9 °F 24.8 °F 65% 30.05 in 10.0 mi SE 6.9 mph - N/A   Clear
8:55 PM 32.0 °F 26.4 °F 26.6 °F 80% 30.04 in 10.0 mi SSE 5.8 mph - N/A   Clear
9:15 PM 33.8 °F 27.7 °F 26.6 °F 75% 30.04 in 10.0 mi SSE 6.9 mph - N/A   Clear
9:35 PM 32.0 °F 26.4 °F 24.8 °F 75% 30.04 in 10.0 mi South 5.8 mph - N/A   Clear
9:55 PM 33.8 °F 29.6 °F 26.6 °F 75% 30.04 in 10.0 mi South 4.6 mph - N/A   Clear
10:15 PM 33.8 °F 30.8 °F 26.6 °F 75% 30.03 in 10.0 mi South 3.5 mph - N/A   Clear
10:35 PM 33.8 °F 29.6 °F 24.8 °F 70% 30.03 in 10.0 mi South 4.6 mph - N/A   Clear
11:15 PM 33.8 °F 28.6 °F 24.8 °F 70% 30.02 in 10.0 mi South 5.8 mph - N/A   Clear
11:35 PM 30.2 °F - 24.8 °F 80% 30.01 in 10.0 mi Calm Calm - N/A   Clear
11:55 PM 32.0 °F 27.5 °F 24.8 °F 75% 30.00 in 10.0 mi South 4.6 mph - N/A   Clear
12:15 AM 30.2 °F 26.7 °F 24.8 °F 80% 30.00 in 10.0 mi South 3.5 mph - N/A   Clear
12:35 AM 30.2 °F - 24.8 °F 80% 30.00 in 10.0 mi Calm Calm - N/A   Clear
12:55 AM 30.2 °F - 23.0 °F 75% 29.98 in 10.0 mi Calm Calm - N/A   Clear